Regional Weather Roundup
Issued by NWS

Home | Current Version | Previous Version | Graphics & Text | Print | Product List | Glossary On
Versions: 1 2 3 4 5 6 7 8 9 10 11 12 13 14 15 16 17 18 19 20 21 22 23 24 25 26 27 28 29 30 31 32 33 34 35 36 37 38 39 40 41 42 43 44 45 46 47 48 49 50
000
ASUS43 KMPX 241501
RWRMN
WEATHER ROUNDUP FOR MINNESOTA
NATIONAL WEATHER SERVICE TWIN CITIES/CHANHASSEN MN
1000 AM CDT MON APR 24 2017


NOTE: "FAIR" INDICATES FEW OR NO CLOUDS BELOW 12,000 FEET WITH NO
SIGNIFICANT WEATHER AND/OR OBSTRUCTIONS TO VISIBILITY. N/A MEANS
CURRENT SKY AND/OR WEATHER CONDITIONS ARE NOT AVAILABLE.

MNZ060>063-068>070-241600-
   Twin Cities Metro

CITY           SKY/WX    TMP DP  RH WIND       PRES   REMARKS
TWIN CITIES    CLOUDY    61  35  37 S15       29.77F
ST PAUL        MOSUNNY   60  38  43 S9        29.78F
CRYSTAL        CLOUDY    61  34  36 S18G26    29.75F
BLAINE         PTSUNNY   63  37  39 SE14G21   29.76F
LAKEVILLE      CLOUDY    57  36  44 S14G21    29.78F
EDEN PRAIRIE   CLOUDY    62  37  39 S12       29.75F
SOUTH ST PAUL  CLOUDY    59  36  41 S10G16    29.78F
LAKE ELMO      FAIR      61  39  44 S13       29.80F
$$
MNZ001>005-007-008-013>017-022>024-027-028-241600-
   Northwest Minnesota

CITY           SKY/WX    TMP DP  RH WIND       PRES   REMARKS
BEMIDJI        CLOUDY    37  32  83 E15       29.71F
HALLOCK        CLOUDY    36  30  80 E17       29.75F
ROSEAU         LGT SNOW  34  28  80 E13       29.78F WCI  25
WARROAD        SNOW      34  28  80 E21G26    29.81F VSB 1/4 WCI  22
CROOKSTON      MIX PCPN  34  34 100 E20       29.66F WCI  22
FOSSTON        CLOUDY    37  30  75 E10G18    29.68F
DETROIT LAKES  CLOUDY    43  34  70 SE10G16   29.62F
MOORHEAD       CLOUDY    45  34  65 E8        29.61S
PARK RAPIDS    CLOUDY    43  31  62 E10       29.67F
MAHNOMEN       FAIR      40  33  76 E14       29.62F
$$
MNZ006-009>011-018-025>026-241600-
   North Central Minnesota

CITY           SKY/WX    TMP DP  RH WIND       PRES   REMARKS
BAUDETTE       CLOUDY    33  28  81 E15G22    29.83R WCI  23
FLAG ISLAND    LGT SNOW  30  28  93 E13       29.87R VSB 1   WCI  20
INTL FALLS     CLOUDY    32  26  78 E15G24    29.84F WCI  22
WASKISH        CLOUDY    32  28  86 E15       29.78F WCI  22
BIG FORK       PTSUNNY   36  27  69 E10G17    29.78F
LONGVILLE      MOSUNNY   41  34  75 E6        29.71F
GRAND RAPIDS   CLOUDY    39  30  70 SE9G17    29.78F
CRANE LAKE     CLOUDY    32  25  74 E3        29.90F
ORR            MOSUNNY   34  23  64 MISG      29.82F
COOK           CLOUDY    34  27  75 E12G17    29.84F WCI  25
WALKER         FAIR      39  33  79 E8        29.70F
$$
MNZ012-019>021-037-241600-
   Northeast Minnesota

CITY           SKY/WX    TMP DP  RH WIND       PRES   REMARKS
DULUTH         MOSUNNY   35  27  72 E23G35    29.85F WCI  23
ELY            PTSUNNY   34  27  75 E14G21    29.88F WCI  24
HIBBING        CLOUDY    37  30  75 SE14G24   29.81F
EVELETH        CLOUDY    38  25  60 E12G22    29.84F
DULUTH HARBOR  CLOUDY    37  32  81 NE26      29.90F
TWO HARBORS    CLOUDY    37  30  75 E26G33    29.89F
SILVER BAY     MOSUNNY   36  28  75 E18G29    29.93F
GRAND MARAIS     N/A     36  29  75 NE21G31   30.01F
G MARAIS ARPRT CLOUDY    30  21  69 E15G23    29.96F WCI  19
$$
MNZ029>031-032-039>041-046>048-054>057-064-241600-
   West Central Minnesota

CITY           SKY/WX    TMP DP  RH WIND       PRES   REMARKS
FERGUS FALLS   CLOUDY    54  37  54 SE14      29.59F
WHEATON        CLOUDY    57  37  47 SE13G18   29.57F
MORRIS         CLOUDY    57  39  51 S17G24    29.58F
ALEXANDRIA     CLOUDY    56  37  49 S14       29.63F
ELBOW LAKE     FAIR      54  38  55 SE17G23   29.59F
WADENA         MOSUNNY   48  36  61 SE14G20   29.64F
GLENWOOD       MOSUNNY   57  37  47 S23G30    29.63F
APPLETON       CLOUDY    61  36  39 S16G26    29.59F
BENSON         CLOUDY    61  34  36 S9        29.63F
ORTONVILLE     CLOUDY    57  37  47 S15G26    29.57F
MADISON        CLOUDY    61  37  41 S24G30    29.58F
WILLMAR        FAIR      63  37  39 S12G22    29.66F
$$
MNZ033>034-036-042>043-049>051-058-059-241600-
   Central Minnesota

CITY           SKY/WX    TMP DP  RH WIND       PRES   REMARKS
ST CLOUD       CLOUDY    59  38  45 S16G23    29.70F
SAUK CENTRE    FAIR      58  38  47 S17       29.65F
PAYNESVILLE    PTSUNNY   58  35  41 S13G23    29.67F
AITKIN         CLOUDY    46  32  57 E8        29.72F
PINE RIVER     CLOUDY    45  36  70 E12       29.74F
BRAINERD       CLOUDY    48  37  65 SE10G17   29.70F
STAPLES        MOSUNNY   48  36  61 SE9       29.66F
LONG PRAIRIE   FAIR      52  37  58 E10       29.66F
LITTLE FALLS   PTSUNNY   52  36  54 SE12      29.69F
LITCHFIELD     CLOUDY    63  41  45 S6G17     29.69F
BUFFALO        PTSUNNY   60  34  38 S14G22    29.73F
MAPLE LAKE     MOSUNNY   60  39  45 S13G21    29.72F
HUTCHINSON     CLOUDY    59  38  46 S14G23    29.71F
$$
MNZ037-044-045-052-053-241600-
   East Central Minnesota

CITY           SKY/WX    TMP DP  RH WIND       PRES   REMARKS
PRINCETON      CLOUDY    59  39  47 SE12      29.73F
MORA           CLOUDY    46  36  66 E9        29.79F
CAMBRIDGE      CLOUDY    59  43  55 SE7       29.73F
RUSH CITY      MOSUNNY   54  39  56 SE10G16   29.78F
MOOSE LAKE     CLOUDY    41  32  70 E9        29.80F
HINCKLEY       FAIR      46  37  71 E9        29.79F
CLOQUET        MOSUNNY   37  27  65 E17G24    29.83F
MCGREGOR       MOSUNNY   41  32  70 E16       29.77F
$$
MNZ071>073-080-081-089-090-097-098-241600-
   Southwest Minnesota

CITY           SKY/WX    TMP DP  RH WIND       PRES   REMARKS
MONTEVIDEO     CLOUDY    61  36  39 SW21G26   29.61F
GRANITE FALLS  CLOUDY    62  40  44 S22G31    29.64F
CANBY          CLOUDY    59  36  41 SW21G30   29.60S
MARSHALL       CLOUDY    58  36  43 S22G33    29.62S
REDWOOD FALLS  CLOUDY    57  36  45 S21G30    29.67F
OLIVIA         CLOUDY    59  37  44 S18G24    29.66F
PIPESTONE      CLOUDY    55  34  44 S25G31    29.61F
WINDOM         CLOUDY    57  34  41 S23G31    29.68F
WORTHINGTON    CLOUDY    58  35  42 S30G37    29.67F
JACKSON        PTSUNNY   55  32  41 S25G35    29.73S
TRACY          CLOUDY    57  38  48 S16G25    29.64F
SLAYTON        CLOUDY    55  36  49 S23G32    29.66F
$$
MNZ065>067-074>077-082>085-091>093-241600-
   South Central Minnesota

CITY           SKY/WX    TMP DP  RH WIND       PRES   REMARKS
MANKATO        CLOUDY    61  33  35 S24G35    29.73F
NEW ULM        CLOUDY    57  36  44 S18G28    29.71F
ST JAMES       CLOUDY    57  36  44 S25G31    29.72F
FAIRMONT       CLOUDY    60  34  37 S28G36    29.73F
GLENCOE        CLOUDY    61  40  47 S14G25    29.72F
FARIBAULT      CLOUDY    61  37  41 S16G23    29.79F
OWATONNA       CLOUDY    59  34  38 S21G28    29.79F
WASECA         CLOUDY    63  34  34 S24G33    29.79F
ALBERT LEA     CLOUDY    59  30  33 S16G24    29.79F
$$
MNZ078>079-086>088-094>096-241600-
   Southeast Minnesota

CITY           SKY/WX    TMP DP  RH WIND       PRES   REMARKS
ROCHESTER      MOSUNNY   60  36  40 S20G25    29.84F
RED WING       MOSUNNY   63  32  31 SE13      29.80F
STANTON        CLOUDY    63  35  35 S17       29.78F
DODGE CENTER   MOSUNNY   59  36  41 S23       29.82S
WINONA         PTSUNNY   54  43  66 SE8       29.87F
AUSTIN         PTSUNNY   57  36  44 S16G22    29.82F
PRESTON        PTSUNNY   59  33  38 S15G24    29.86F
$$
ABBREVIATIONS USED IN REMARKS
   TC - TEMPERATURES IN CELSIUS
  WCI - WIND CHILL INDEX
   HX - HEAT INDEX
  VSB - VISIBILITY
$$



USA.gov is the U.S. government's official web portal to all federal, state and local government web resources and services.